Tracking 25963 objects as of 13-Aug-2022
HD Live streaming from Space Station
objects crossing your sky now

THOR ABLESTAR DEB

Track THOR ABLESTAR DEB now!
10-day predictions


NORAD ID: 5715
Int'l Code: 1961-015JS
Perigee: 913.8 km
Apogee: 1,165.0 km
Inclination: 66.6 °
Period: 105.8 minutes
Semi major axis: 7410 km
RCS: 0.0104 m2 (small)
Launch date: June 29, 1961
Source: United States (US)
Launch site: AIR FORCE EASTERN TEST RANGE (AFETR)

Note: This is SATELLITE DEBRIS
aabbcc
Your satellite tracking list
Your tracking list is empty




NASA's NSSDC Master Catalog

Two Line Element Set (TLE):
1 05715U 61015JS  22224.55836969  .00000266  00000-0  40577-3 0  9994
2 05715  66.5673 159.5922 0169468 214.9723 321.9554 13.60945009 10353
Source of the keplerian elements: AFSPC